Wainwright, AK

2:17 AM AKST on February 22, 2017 (GMT -0900)
Wainwright

Weather History for PAWI - May, 2013

Change the Weather History Date:

Sunday, May 12, 2013

  Actual Average (PABR) Record (PABR)
Temperature  
Mean Temperature 18 °F -  
Max Temperature 21 °F 22 °F 41 °F (2016)
Min Temperature 14 °F 11 °F -10 °F (1936)
Degree Days  
Heating Degree Days 48    
Moisture  
Dew Point 11 °F    
Average Humidity 77    
Maximum Humidity 86    
Minimum Humidity 68    
Precipitation  
Precipitation 0.00 in - - ()
Sea Level Pressure  
Sea Level Pressure 29.73 in    
Wind  
Wind Speed 11 mph (NW)    
Max Wind Speed 23 mph    
Max Gust Speed -    
Visibility 8 miles    
Events Rain , Snow    
Averages and records for this station are not official NWS values.
T = Trace of Precipitation, MM = Missing Value Source: NWS Daily Summary

Daily Weather History Graph

Daily Weather History Graph

Search for Another Location

Airport or City:

Trip Planner

Search our weather history database for the weather conditions in past years. The results will help you decide how hot, cold, wet, or windy it might be!

Date:

Astronomy

May. 12, 2013 Rise Set
Actual Time 3:17 AM AKDT 2:17 AM AKDT
Civil Twilight Sun does not rise Sun does not rise
Nautical Twilight Sun does not rise Sun does not rise
Astronomical Twilight Sun does not rise Sun does not rise
Moon No Moon Rise No Moon Set
Length of Visible Light 24h 00m
Length of Day
22h 59m
Waxing Crescent, 7% of the Moon is Illuminated
May 12
Waxing Crescent
May 17
First Quarter
May 24
Full
May 31
Last Quarter
Jun 8
New

Hourly Weather History & Observations

Time (AKDT) Temp. Windchill Dew Point Humidity Pressure Visibility Wind Dir Wind Speed Gust Speed Precip Events Conditions
12:19 AM 17.6 °F 5.7 °F 12.2 °F 79% 29.79 in 10.0 mi NNW 10.4 mph - N/A   Overcast
12:53 AM 17.1 °F 3.6 °F 10.0 °F 74% 29.79 in 10.0 mi NNW 12.7 mph - N/A   Overcast
1:53 AM 17.1 °F 4.3 °F 9.0 °F 71% 29.79 in 10.0 mi NW 11.5 mph - N/A   Overcast
2:53 AM 16.0 °F 4.4 °F 9.0 °F 74% 29.78 in 10.0 mi NNW 9.2 mph - N/A   Overcast
3:53 AM 15.1 °F 4.2 °F 8.1 °F 74% 29.77 in 10.0 mi NW 8.1 mph - N/A   Overcast
4:53 AM 15.1 °F 3.3 °F 6.1 °F 68% 29.76 in 10.0 mi WNW 9.2 mph - N/A   Overcast
5:53 AM 15.1 °F 4.2 °F 6.1 °F 68% 29.75 in 10.0 mi WNW 8.1 mph - N/A   Overcast
6:53 AM 15.1 °F 4.2 °F 6.1 °F 68% 29.74 in 10.0 mi WNW 8.1 mph - N/A   Overcast
7:53 AM 15.1 °F 4.2 °F 6.1 °F 68% 29.74 in 10.0 mi NW 8.1 mph - N/A   Overcast
8:07 AM 15.8 °F 2.7 °F 6.8 °F 68% 29.73 in 10.0 mi NW 11.5 mph - N/A   Overcast
8:53 AM 14.0 °F -0.8 °F 8.1 °F 77% 29.74 in 10.0 mi NW 13.8 mph - N/A   Overcast
9:53 AM 14.0 °F 0.5 °F 6.1 °F 71% 29.74 in 10.0 mi WNW 11.5 mph - N/A   Overcast
10:29 AM 14.0 °F 1.2 °F 6.8 °F 73% 29.74 in 10.0 mi West 10.4 mph - N/A   Overcast
10:53 AM 14.0 °F 2.9 °F 6.1 °F 71% 29.75 in 10.0 mi West 8.1 mph - N/A   Overcast
11:53 AM 14.0 °F 2.0 °F 7.0 °F 74% 29.74 in 9.0 mi WNW 9.2 mph - 0.00 in   Overcast
12:45 PM 14.0 °F 2.0 °F 8.6 °F 79% 29.74 in 3.0 mi WSW 9.2 mph - 0.00 in Snow Light Snow
12:53 PM 15.1 °F 4.2 °F 9.0 °F 77% 29.74 in 2.5 mi West 8.1 mph - 0.00 in Snow Light Snow
1:00 PM 15.8 °F 4.2 °F 8.6 °F 73% 29.73 in 3.0 mi West 9.2 mph - 0.00 in Snow Light Snow
1:53 PM 16.0 °F 4.4 °F 10.0 °F 77% 29.73 in 5.0 mi West 9.2 mph - 0.00 in Snow Light Snow
2:53 PM 16.0 °F 7.4 °F 10.0 °F 77% 29.73 in 9.0 mi West 5.8 mph - 0.00 in Snow Light Snow
3:53 PM 17.1 °F 6.6 °F 10.9 °F 77% 29.73 in 9.0 mi WNW 8.1 mph - 0.00 in Snow Light Snow
4:53 PM 18.0 °F 5.4 °F 12.9 °F 81% 29.72 in 10.0 mi NW 11.5 mph - 0.00 in   Overcast
5:15 PM 17.6 °F 4.3 °F 12.2 °F 79% 29.72 in 10.0 mi NNW 12.7 mph - N/A   Overcast
5:53 PM 19.0 °F 6.1 °F 14.0 °F 81% 29.72 in 10.0 mi NW 12.7 mph - N/A   Overcast
6:53 PM 19.9 °F 8.6 °F 15.1 °F 81% 29.72 in 10.0 mi NW 10.4 mph - N/A   Overcast
7:53 PM 21.0 °F 8.6 °F 17.1 °F 85% 29.71 in 10.0 mi NW 12.7 mph - N/A   Overcast
8:53 PM 21.0 °F 6.2 °F 17.1 °F 85% 29.70 in 9.0 mi NNW 18.4 mph - N/A   Overcast
9:42 PM 21.2 °F 6.8 °F 17.6 °F 86% 29.70 in 2.5 mi NNW 17.3 mph - N/A   Overcast
9:53 PM 21.0 °F 6.2 °F 17.1 °F 85% 29.70 in 2.0 mi NNW 18.4 mph - N/A   Overcast
10:18 PM 21.2 °F 5.6 °F 17.6 °F 86% 29.70 in 1.0 mi NNW 20.7 mph - 0.00 in Rain Light Freezing Rain
10:26 PM 21.2 °F 4.9 °F 17.6 °F 86% 29.70 in 3.0 mi NNW 23.0 mph - 0.00 in Rain Light Freezing Rain
10:48 PM 21.2 °F 5.2 °F 17.6 °F 86% 29.70 in 6.0 mi NNW 21.9 mph - 0.00 in   Overcast
10:53 PM 21.0 °F 4.6 °F 17.1 °F 85% 29.70 in 5.0 mi NNW 23.0 mph - 0.00 in   Overcast
11:53 PM 19.0 °F 2.0 °F 15.1 °F 85% 29.72 in 3.0 mi NNW 23.0 mph - N/A   Overcast